GFSSGP_925_rhum_057.txt.gz
RH
16 16 23 19 18 21 19 18 20 21 32 72 71 64 60 82 77 68 92 94 97 99 97 92 83 67 60 58 50 42 30 22 24 20 37 63 70 63 60 61 69 80 85 86 77 94 92 44 37
16 24 23 19 17 18 13 18 20 39 49 61 65 66 63 69 76 89 91 92 96 99 98 96 93 91 74 65 44 36 53 52 26 34 65 78 79 70 62 66 82 85 81 84 90 94 56 36 39
22 23 20 20 20 15 15 14 31 54 60 58 70 78 89 85 79 83 91 91 98 100 98 98 92 96 93 76 61 60 47 31 50 56 69 81 77 66 60 60 69 71 77 84 80 59 38 40 41
22 16 16 18 19 15 14 15 63 56 51 52 61 77 80 97 97 90 84 89 97 98 96 89 91 90 75 55 61 39 26 44 63 77 73 74 76 70 58 55 58 50 46 48 46 40 42 45 48
19 19 20 18 15 13 18 55 61 58 56 57 60 79 77 98 99 99 99 92 94 100 86 88 85 85 75 52 21 22 52 56 66 74 65 72 72 65 64 53 46 41 40 41 44 46 46 46 46
22 19 21 19 17 14 37 60 58 58 58 61 64 73 87 99 97 100 99 97 100 99 100 98 92 98 95 90 81 43 53 59 83 57 62 59 61 60 60 52 47 44 44 44 45 46 48 47 46
23 21 21 19 18 16 30 60 62 58 57 50 58 73 85 96 100 99 98 99 100 84 85 82 97 92 85 76 87 62 64 82 62 69 52 50 48 50 50 48 48 48 47 48 50 49 48 48 46
21 19 20 18 17 16 44 62 56 60 57 57 69 70 85 98 100 96 95 96 98 100 93 95 88 76 69 79 76 76 73 68 68 49 43 42 41 41 45 51 51 51 52 53 51 50 48 46 42
18 21 22 20 18 18 54 58 59 57 68 79 77 74 88 100 100 97 100 100 98 100 98 92 80 74 65 57 59 74 75 54 53 43 44 44 50 44 52 52 54 53 54 52 50 48 46 42 36
18 23 20 16 14 18 53 53 52 56 77 81 83 94 100 100 99 99 99 99 99 100 100 100 91 77 64 54 54 53 62 57 42 44 46 45 45 49 50 51 54 53 51 48 47 45 41 37 34
20 20 17 15 14 19 38 56 49 53 66 70 83 92 97 98 95 98 100 99 99 100 87 73 59 52 48 45 56 70 65 50 48 45 47 50 50 56 53 58 56 53 51 50 48 44 38 34 30
20 17 16 13 14 43 39 48 52 54 56 66 71 85 93 93 92 91 97 100 99 94 78 80 81 81 58 54 63 65 44 40 42 46 47 47 51 57 59 57 56 54 52 51 46 39 32 25 20
17 16 20 20 31 42 44 48 54 76 82 73 80 87 87 87 88 88 89 92 92 80 83 84 91 85 73 65 61 44 40 42 44 49 50 48 48 55 59 62 58 55 52 47 41 34 25 21 22
21 21 32 43 44 43 44 53 53 79 80 81 82 81 82 80 85 83 87 90 82 68 74 82 87 67 61 47 41 48 43 44 50 57 66 58 53 58 63 64 59 53 47 43 37 28 24 25 28
24 26 31 42 42 44 40 44 42 75 79 84 82 82 81 78 84 72 74 80 75 69 73 76 67 39 47 54 44 52 53 50 54 67 76 80 71 60 65 62 55 50 44 39 34 30 28 27 31
25 20 27 33 39 42 36 39 62 77 79 79 84 83 82 79 81 85 82 79 76 70 78 84 72 66 76 64 50 52 52 57 62 67 72 80 84 78 72 67 55 47 42 38 34 32 33 37 42
31 25 25 30 37 39 34 32 58 81 82 76 78 75 76 76 76 81 85 86 81 79 82 90 88 78 80 69 58 59 60 61 67 78 83 87 90 88 78 67 54 46 42 39 37 36 35 46 49
34 34 30 25 26 37 39 36 64 85 85 76 67 74 73 75 70 76 82 82 82 80 87 92 91 85 84 71 65 65 70 69 76 84 87 86 87 88 71 60 52 46 44 40 39 36 37 48 49
32 33 30 25 22 36 37 34 44 83 81 76 72 72 70 67 63 73 77 79 80 86 88 89 89 87 88 79 79 82 85 84 92 92 90 89 79 73 64 57 52 46 42 41 40 42 46 60 49
32 32 30 27 26 28 29 26 30 73 79 68 65 64 60 62 66 71 75 78 78 80 83 84 82 84 85 78 72 82 83 88 91 95 90 85 76 67 63 58 51 46 42 43 43 46 63 66 48
31 32 34 32 30 25 24 23 32 51 60 62 58 56 56 59 65 69 74 78 79 82 83 85 85 82 86 82 70 73 84 91 99 95 89 81 74 68 62 57 52 44 43 45 46 50 56 57 55
33 29 32 34 34 32 27 33 28 30 54 60 56 58 58 62 62 63 72 76 80 79 82 80 81 82 83 79 74 78 85 90 96 96 88 82 73 68 61 52 47 44 46 47 51 52 47 43 44
32 33 34 35 37 37 36 33 27 29 30 44 54 56 60 57 59 63 66 69 75 79 85 87 86 83 85 85 83 80 91 93 89 90 81 81 76 66 55 49 47 46 48 50 54 47 39 39 46
34 38 39 42 42 44 36 34 30 26 26 27 32 46 58 56 57 57 64 69 71 81 85 84 90 90 89 94 95 91 95 93 89 84 79 78 74 67 60 52 49 48 52 55 47 48 46 41 42
33 36 44 52 53 45 43 42 31 27 26 26 26 32 49 54 54 54 61 67 69 77 83 86 87 89 97 93 97 86 86 94 89 82 77 83 86 72 65 58 52 55 56 48 62 63 67 52 45
37 36 50 44 48 40 42 43 24 29 26 33 34 34 33 53 52 50 52 59 64 73 79 85 85 86 97 99 98 80 84 95 93 81 80 82 76 75 61 57 58 57 52 67 80 84 61 49 46
41 40 38 58 68 63 43 33 22 26 27 32 36 34 36 41 51 49 49 55 61 70 76 84 83 86 94 99 100 88 89 100 97 89 87 82 84 77 65 61 58 54 66 81 79 59 49 43 50
35 36 45 49 54 54 40 37 27 24 28 32 30 37 36 43 47 46 48 55 61 70 76 87 86 86 90 99 100 99 95 98 97 93 88 82 82 76 67 62 56 64 88 81 60 63 56 54 56
42 41 44 40 46 45 48 34 32 24 27 33 34 36 40 41 48 48 48 55 65 76 82 87 88 86 91 98 100 100 100 100 100 95 89 78 74 79 67 64 76 98 83 61 71 59 54 60 66
36 39 41 53 48 58 57 42 28 29 27 31 32 34 39 48 46 51 54 66 74 78 83 86 90 90 94 100 100 100 100 100 100 99 93 87 84 88 67 75 96 80 78 75 71 73 58 66 69

GFSSGP_925_rhum_060.txt.gz
RH
32 22 19 15 13 11 12 10 10 11 23 30 39 28 33 40 46 52 65 77 85 84 77 90 94 100 100 100 88 76 67 56 49 45 46 36 44 55 59 73 81 89 93 93 92 76 64 43 44
23 22 19 12 12 12 10 9 10 16 26 43 48 46 45 43 54 62 74 83 84 84 83 80 94 98 93 78 69 61 53 46 38 45 46 40 53 56 69 79 84 88 90 93 82 76 62 44 42
22 18 14 13 12 12 11 10 12 27 37 44 48 50 47 45 54 66 70 79 87 84 84 85 85 79 71 67 58 48 44 42 70 64 52 53 58 60 70 81 79 77 89 93 80 68 42 40 41
15 10 11 12 12 11 9 8 20 25 35 39 43 50 60 75 78 87 83 85 91 88 87 86 88 88 71 53 52 57 70 86 79 59 59 62 56 68 74 76 81 89 92 88 65 43 43 43 42
13 9 10 12 12 8 8 14 25 31 38 39 41 52 62 88 99 99 93 90 95 99 95 95 90 94 86 88 82 81 87 81 70 66 65 60 57 61 64 63 71 78 72 55 44 46 44 43 43
12 11 12 12 10 8 9 24 35 39 42 45 44 49 68 89 99 100 99 99 97 91 94 100 96 95 90 80 81 93 93 84 82 75 74 59 56 53 52 51 53 51 47 46 46 45 45 45 44
14 14 13 12 10 12 15 35 39 41 42 40 38 44 72 95 99 100 100 100 100 98 99 99 100 98 93 76 76 71 91 91 85 78 76 55 53 50 48 45 42 42 44 46 47 47 46 45 42
11 12 14 11 11 16 19 35 42 44 39 40 41 48 68 98 99 99 100 100 93 99 91 94 84 78 75 64 63 69 83 87 79 77 58 54 52 48 46 45 46 48 49 49 48 48 46 43 38
12 13 13 13 13 16 24 31 48 42 41 48 51 48 58 100 100 98 99 100 99 90 100 96 82 82 81 76 78 70 79 70 61 51 47 53 63 60 56 63 52 50 50 50 49 46 41 36 33
14 14 12 10 10 12 14 28 37 43 43 48 70 86 98 100 89 88 97 99 100 100 100 100 100 96 83 86 64 68 55 80 58 47 65 59 63 58 68 71 54 53 51 49 45 40 39 38 36
14 13 12 12 12 11 12 23 24 33 31 37 54 88 92 93 87 90 95 96 98 100 100 100 99 91 84 84 83 68 84 62 49 57 65 68 67 69 67 68 63 60 52 49 45 47 43 44 36
16 12 13 13 12 14 17 21 32 32 39 43 51 76 89 91 91 92 94 98 98 98 97 94 82 73 71 68 59 52 49 37 58 73 69 69 64 69 66 61 60 57 53 54 51 49 48 44 42
17 13 14 16 22 20 28 28 33 40 47 53 64 82 83 83 78 84 88 94 90 77 78 76 80 69 61 64 65 64 67 66 63 71 72 67 66 70 66 63 59 56 56 53 49 47 42 42 39
16 16 17 24 25 29 31 34 35 44 54 64 74 79 77 80 72 74 91 96 90 74 86 85 83 72 69 65 74 69 63 62 70 66 69 77 70 74 68 67 61 58 53 50 46 43 39 36 37
18 20 17 26 27 30 30 33 31 41 58 73 73 73 71 71 67 60 89 77 66 67 66 70 63 70 68 66 72 65 63 63 58 66 81 75 74 77 71 66 61 56 54 52 49 45 42 37 32
18 18 17 25 28 32 31 26 29 44 51 58 71 66 69 70 62 54 64 61 54 53 59 62 62 70 72 65 64 60 61 60 59 68 82 91 81 80 78 74 66 58 55 51 49 45 41 37 32
16 18 16 27 27 28 30 24 33 48 47 42 51 54 58 62 56 56 61 60 53 52 54 58 59 62 74 76 62 63 66 63 62 72 81 95 99 97 88 73 67 64 55 53 49 46 43 40 37
16 20 17 17 23 28 25 21 27 47 46 42 40 44 53 52 52 58 59 59 51 56 59 56 60 66 82 82 76 66 67 65 70 77 84 97 100 100 91 79 69 60 55 55 50 49 46 42 44
20 20 18 17 18 26 23 21 17 37 52 44 38 38 44 47 47 56 60 59 55 51 58 63 64 71 80 81 68 59 61 64 70 76 94 98 99 100 94 77 71 60 56 56 58 54 53 51 52
24 19 18 20 20 23 19 18 16 25 44 42 39 42 38 40 44 51 60 59 60 53 56 60 65 72 76 70 61 57 58 64 65 80 88 95 96 95 88 70 66 62 57 60 58 55 52 53 52
25 23 22 21 21 20 20 17 19 28 38 45 47 40 33 34 38 44 54 60 61 58 59 60 62 68 72 67 62 61 62 71 74 78 97 99 95 86 78 73 66 61 60 60 60 59 55 51 54
26 19 21 22 21 23 20 24 18 18 28 35 36 40 38 32 33 36 46 53 58 59 59 61 62 67 72 73 64 64 55 56 62 74 96 93 91 82 75 75 67 63 60 56 61 60 56 52 47
22 23 24 23 23 27 24 23 17 20 19 23 31 33 36 36 33 34 39 47 54 57 62 66 62 65 70 74 71 70 62 49 57 82 90 94 90 85 77 74 59 63 60 62 61 62 60 53 41
23 27 28 28 28 33 24 23 18 15 15 16 16 24 28 32 36 34 33 43 48 55 61 69 68 68 70 77 81 76 71 66 81 86 90 90 90 86 79 70 63 66 61 66 66 66 58 55 58
26 26 35 42 39 34 28 28 19 16 17 18 19 19 20 27 33 36 34 37 44 50 60 67 69 64 67 76 81 82 83 80 87 86 84 86 86 84 79 71 64 65 65 67 66 58 61 66 68
27 25 31 38 36 30 30 26 17 18 17 20 23 24 24 23 31 33 36 37 41 49 58 67 69 66 65 77 82 85 87 88 89 83 88 85 88 83 84 78 72 68 70 72 66 58 77 78 48
31 32 25 37 51 44 25 20 16 16 17 21 20 21 23 22 26 31 30 36 42 47 55 62 68 64 62 74 82 88 98 97 88 98 93 97 89 83 90 80 76 75 68 79 63 86 84 50 46
29 24 34 33 42 39 27 25 18 17 20 16 16 17 20 26 27 29 30 33 39 43 50 61 67 64 64 71 83 93 98 100 100 99 99 99 87 96 86 88 76 71 81 68 85 84 61 58 56
32 32 31 28 31 37 36 25 16 16 17 22 22 20 21 25 29 31 31 34 38 44 52 59 65 62 63 68 77 94 98 100 100 100 100 98 96 90 88 79 78 83 85 94 88 74 71 79 73
23 26 28 34 34 37 40 30 14 16 19 18 19 21 24 28 29 30 32 36 41 46 51 57 60 61 62 68 77 91 96 99 100 100 100 100 95 90 92 94 90 90 86 91 84 80 92 79 65

GFSSGP_925_rhum_063.txt.gz
RH
22 29 14 11 12 10 10 8 6 8 8 16 22 25 16 12 37 71 81 56 63 70 74 88 90 93 93 96 99 83 68 59 54 40 40 50 63 66 78 82 84 86 90 80 79 82 80 60 44
19 13 12 11 14 11 9 7 8 8 17 20 24 27 25 23 38 67 75 62 65 75 78 80 91 94 94 98 95 81 68 59 53 41 48 58 61 63 72 81 84 87 87 80 82 84 76 45 42
19 11 11 12 12 12 9 10 8 10 18 22 24 32 33 28 35 45 58 66 68 81 83 90 95 98 97 100 91 75 70 62 48 49 64 62 67 73 69 80 85 90 82 83 85 66 41 41 41
13 9 8 10 10 8 8 7 8 12 15 25 24 32 35 56 64 81 70 68 70 83 86 98 99 100 100 99 92 89 75 58 58 72 74 70 88 88 89 86 88 90 84 85 64 42 42 42 42
11 8 10 10 9 8 7 7 16 21 20 24 27 30 35 63 90 98 96 84 84 97 97 94 100 100 99 93 93 93 85 75 77 82 75 83 86 86 86 87 90 82 78 53 44 43 44 43 40
10 9 11 9 10 8 7 14 20 26 26 32 31 32 47 77 92 99 98 99 93 89 89 98 100 100 96 89 85 87 86 86 87 81 74 74 74 77 85 86 80 64 50 46 45 44 43 41 36
11 11 11 10 10 9 11 19 25 26 29 28 27 33 58 82 99 100 100 100 97 85 69 85 97 87 90 86 85 76 81 86 89 81 68 64 63 64 68 66 56 48 46 44 45 45 43 39 34
10 9 10 9 10 12 17 19 23 19 26 32 27 33 41 95 99 100 100 100 100 89 99 99 96 85 79 69 61 63 72 78 81 69 59 55 53 50 47 50 48 45 45 47 47 46 42 36 32
8 10 10 10 10 14 17 17 31 30 30 32 35 39 85 99 100 99 100 100 100 100 100 100 96 87 76 81 83 66 80 82 69 57 44 45 52 46 53 58 45 46 48 48 47 45 38 33 30
10 11 10 9 9 10 10 12 19 26 18 34 49 63 90 96 93 94 96 98 100 100 100 100 95 99 93 99 80 77 72 70 75 63 58 58 58 66 70 50 50 51 50 48 46 42 38 38 33
10 11 9 9 9 10 11 12 14 24 25 47 38 73 85 88 81 92 99 97 99 100 98 100 100 99 94 93 88 86 74 79 70 60 59 57 67 66 70 68 66 57 49 48 44 45 46 41 33
12 9 9 9 10 11 12 12 17 20 31 34 46 71 83 88 82 87 96 100 100 100 100 99 99 99 98 91 86 79 85 78 69 70 63 64 67 66 67 60 61 59 53 51 51 50 50 43 40
12 10 9 9 11 14 15 16 18 24 34 48 63 75 84 81 84 85 94 98 99 100 100 99 92 97 92 84 79 74 71 63 62 66 66 67 65 64 59 57 58 54 54 55 52 52 46 43 39
11 12 11 11 13 15 18 16 25 29 37 59 70 74 76 73 75 79 94 93 90 94 91 85 89 80 78 67 56 49 48 48 57 67 68 67 64 67 62 62 57 55 56 53 50 48 44 37 38
13 14 12 12 14 14 17 20 57 33 40 55 60 64 65 67 64 73 93 97 89 86 92 89 78 70 62 64 63 57 56 53 59 60 66 69 65 70 62 64 59 58 54 53 49 48 43 38 32
14 13 16 16 14 15 18 57 64 30 40 50 47 47 52 45 42 66 83 76 68 78 76 67 54 62 62 59 59 53 52 55 58 55 64 71 68 75 70 64 62 59 58 55 52 47 44 37 33
13 15 20 25 14 17 18 39 49 22 29 39 39 40 48 46 36 50 68 54 53 56 57 61 51 54 53 55 57 56 56 56 52 54 62 75 73 75 74 71 70 65 60 55 53 50 45 38 35
15 13 15 12 21 16 16 18 29 25 25 29 32 36 40 42 36 42 45 42 44 48 50 51 54 54 56 61 56 52 55 53 46 52 54 74 86 88 88 75 76 73 59 58 54 52 47 40 39
17 14 13 14 14 17 18 22 16 26 25 28 30 31 37 36 33 40 44 45 42 48 51 51 51 53 57 57 54 47 49 50 50 53 58 70 86 94 95 78 77 75 60 57 58 58 51 45 48
18 17 14 14 14 17 16 20 16 16 26 24 27 26 32 34 34 37 43 45 42 45 48 48 48 50 56 55 52 43 40 43 46 51 58 79 89 96 92 83 75 75 60 60 62 59 53 48 52
20 18 23 21 23 15 16 16 14 14 21 25 25 25 27 30 34 37 40 45 44 43 47 48 48 49 52 49 49 43 42 42 49 49 57 80 86 90 92 86 73 70 62 63 64 61 54 49 53
23 15 16 17 18 22 24 30 26 15 19 24 28 32 30 26 28 33 39 46 49 45 44 46 47 46 49 53 47 46 42 40 43 50 53 79 84 91 86 82 77 71 66 64 65 61 56 54 50
20 19 18 18 22 23 21 18 30 14 12 15 22 30 27 23 24 27 33 40 45 49 48 48 46 47 48 53 54 51 49 43 44 50 53 89 85 87 84 80 80 75 69 64 62 59 61 56 50
16 20 20 20 21 35 23 21 25 17 12 10 11 18 23 23 21 22 25 32 37 42 48 50 50 48 49 52 57 57 55 54 43 44 64 81 86 87 87 81 83 76 73 62 62 62 64 60 52
20 23 32 39 51 36 27 20 21 22 12 12 13 12 16 21 24 24 22 27 33 37 44 50 53 50 50 53 58 63 62 62 57 55 73 77 82 88 89 87 81 80 75 67 70 66 68 54 55
23 22 34 52 45 52 21 21 18 12 12 12 14 15 16 17 20 24 25 24 29 34 41 48 51 53 51 58 61 64 69 69 69 69 81 85 84 89 83 85 84 79 78 82 71 72 64 64 76
23 27 22 32 29 33 21 16 12 12 11 13 14 15 16 17 17 20 23 26 26 31 38 46 48 50 52 56 60 67 71 74 74 84 88 91 91 85 85 89 81 82 88 81 72 68 81 83 84
26 20 30 26 44 41 22 19 19 15 16 13 13 13 13 17 19 20 22 25 29 30 35 43 51 51 51 53 64 75 82 85 83 87 93 95 97 90 92 89 94 99 89 74 74 82 91 87 75
25 29 25 30 38 39 32 21 15 14 13 14 15 13 14 16 20 24 23 23 26 30 37 44 51 55 55 55 64 78 90 96 91 94 93 94 98 100 100 99 99 89 78 86 100 96 89 82 77
18 22 23 32 29 27 31 28 13 13 12 14 14 14 14 17 18 22 25 27 28 31 34 42 48 53 52 53 57 84 94 98 99 98 100 99 100 100 99 93 92 88 90 99 98 90 88 88 94

GFSSGP_925_rhum_069.txt.gz
RH
17 18 23 29 33 28 28 20 14 12 18 34 32 29 31 31 40 68 66 71 77 74 63 78 94 84 88 82 70 58 53 53 48 37 46 71 84 85 86 85 84 83 83 79 74 61 38 53 59
19 30 30 33 28 34 26 16 13 14 30 33 27 26 24 72 61 76 83 66 58 55 53 54 56 91 87 91 76 62 56 53 45 42 82 82 84 88 85 81 80 84 83 78 67 36 38 49 53
16 26 31 25 31 32 24 15 12 32 43 42 44 38 76 94 78 91 96 66 56 54 41 49 56 86 89 86 71 61 56 51 46 55 85 84 86 84 76 76 82 81 80 70 36 32 44 49 49
20 21 21 21 23 18 17 11 30 30 39 44 49 61 75 90 88 100 96 84 97 91 86 75 82 96 87 91 92 90 64 54 53 68 86 85 88 80 73 79 76 66 45 34 34 30 41 46 42
26 26 26 24 20 14 11 10 24 34 40 58 52 63 67 85 94 95 96 99 86 91 92 88 97 99 96 99 94 74 57 60 57 71 87 88 88 77 72 73 56 38 37 37 36 28 27 41 39
28 21 26 24 18 12 15 19 24 33 34 57 46 62 79 83 50 94 98 100 100 99 93 94 92 96 68 88 95 74 61 60 73 78 83 90 88 74 63 52 38 37 38 39 35 26 21 34 38
22 25 26 20 15 12 21 18 27 30 39 52 56 66 83 86 88 84 97 100 100 100 100 90 82 74 58 89 100 98 87 92 82 79 84 93 89 75 56 46 40 40 42 40 34 25 19 30 38
19 19 19 15 14 18 21 16 19 20 51 50 57 79 87 95 95 93 98 97 100 100 100 98 91 75 79 84 81 92 81 85 92 94 92 94 89 76 54 44 42 43 43 40 32 25 19 32 34
14 19 21 18 15 18 22 20 20 23 39 49 74 78 82 98 98 100 100 100 100 100 100 100 97 100 94 89 82 83 74 65 67 89 91 94 89 71 49 45 42 44 45 42 33 22 20 29 28
18 21 17 12 12 12 15 21 18 30 43 51 89 92 100 100 99 99 99 98 100 100 100 100 97 91 88 92 83 76 78 75 68 68 74 89 76 55 46 46 46 46 46 40 34 32 36 34 32
17 16 12 11 10 11 12 12 52 38 65 94 58 94 94 92 90 97 100 100 100 99 99 100 99 100 92 94 86 76 73 71 74 76 71 63 55 46 44 47 48 48 46 40 41 44 44 36 32
17 13 12 10 10 10 11 17 82 83 84 69 62 87 89 92 90 94 99 100 100 100 100 100 99 100 84 83 82 80 71 73 68 61 60 60 51 44 47 46 49 48 46 45 48 49 43 36 32
16 14 11 11 10 11 10 46 61 76 64 66 70 80 88 90 91 94 100 100 100 100 100 100 100 97 86 83 80 71 79 67 74 63 70 62 51 46 46 49 50 49 48 51 54 50 45 35 34
16 16 15 13 13 12 13 38 45 76 57 54 70 80 88 86 89 97 100 100 100 100 100 100 97 94 89 88 87 80 81 66 74 64 67 63 61 49 45 56 53 53 52 53 55 52 46 40 37
18 22 18 16 14 13 13 30 54 64 53 61 71 70 82 80 89 94 97 100 100 99 97 100 99 97 93 80 71 79 73 74 69 71 68 66 60 47 56 61 57 56 59 56 55 50 44 41 38
24 22 26 18 15 13 18 35 52 69 68 78 74 73 71 78 88 94 96 99 100 100 99 99 100 89 84 71 63 78 68 68 70 71 69 64 66 62 66 63 58 58 57 56 54 50 46 40 38
28 32 26 19 14 16 22 54 49 48 53 58 72 69 68 87 91 90 94 96 94 95 92 90 87 80 88 72 59 68 64 65 63 64 65 69 67 65 66 63 60 60 57 58 53 50 48 42 38
34 28 22 22 19 20 32 45 48 49 46 57 82 71 66 89 92 90 92 92 93 96 86 86 90 81 70 65 59 59 56 49 55 60 60 57 66 68 66 67 64 62 60 56 55 54 48 47 39
25 24 24 19 17 22 26 40 50 47 52 75 75 76 70 72 76 83 83 84 88 88 79 75 76 67 69 63 50 43 44 56 57 55 63 62 59 60 69 68 72 66 61 58 58 56 53 51 42
23 25 25 20 19 17 18 21 48 52 53 51 66 65 62 67 74 74 75 77 79 75 69 68 56 56 64 54 54 66 58 53 58 57 61 61 60 63 70 72 74 71 70 65 62 57 56 53 47
23 24 26 26 22 22 21 26 46 36 40 44 46 48 47 69 72 68 63 69 65 60 61 62 68 66 71 68 63 56 59 57 56 56 51 55 65 69 71 77 77 80 77 75 68 60 59 57 52
25 20 20 25 28 34 24 40 28 26 32 30 37 47 46 60 63 62 58 63 66 63 64 63 62 66 67 56 53 59 59 64 62 53 56 54 60 70 73 79 77 85 84 80 69 65 62 62 67
24 22 22 27 30 29 29 48 44 34 28 30 33 43 43 47 49 51 54 57 60 62 66 64 63 62 61 62 58 58 56 54 56 55 51 52 66 70 74 77 79 82 88 80 73 70 70 76 90
18 20 25 26 32 47 32 50 56 37 25 26 29 36 39 42 47 48 47 51 55 57 59 58 56 57 54 52 57 60 56 51 48 52 52 54 62 72 75 76 79 80 85 82 75 73 79 88 91
21 25 50 60 66 61 39 47 40 31 26 24 25 35 32 35 42 45 51 48 50 56 56 56 56 57 55 54 57 53 57 49 43 41 48 55 76 77 73 81 81 81 87 87 79 84 89 90 94
27 32 59 60 78 70 50 48 30 25 22 17 22 30 35 32 35 41 44 50 48 49 55 55 55 56 55 55 55 52 52 52 44 44 45 50 61 69 76 80 79 83 88 87 91 89 93 99 95
30 37 33 72 69 91 73 42 22 22 19 17 16 26 35 36 32 35 41 42 48 49 50 56 53 54 54 54 57 61 54 59 59 51 54 51 66 64 67 80 85 88 88 90 89 91 94 97 98
24 25 43 64 97 97 57 49 35 38 29 19 16 17 23 28 32 33 33 42 44 48 52 55 56 55 52 53 53 58 62 62 65 65 69 75 75 69 88 92 97 94 91 92 93 95 99 98 98
28 28 34 47 63 73 66 56 38 34 27 18 23 22 26 26 25 30 34 38 41 45 50 56 56 56 57 55 54 54 62 64 66 75 82 86 89 95 95 95 95 96 96 96 94 97 96 98 94
21 28 40 66 52 58 73 59 26 32 20 23 21 21 23 29 29 28 33 36 41 42 46 54 58 56 56 58 59 56 65 70 72 92 85 88 99 100 96 93 95 96 96 97 96 98 100 98 92

GFSSGP_925_rhum_075.txt.gz
RH
21 20 31 28 27 36 36 27 20 19 22 35 37 61 73 91 70 62 87 86 84 100 94 83 58 53 58 68 70 89 82 60 51 56 66 85 88 89 84 78 80 85 86 86 87 90 97 97 97
25 34 33 34 36 38 32 24 19 21 37 38 47 70 72 92 80 76 86 85 94 95 95 83 72 84 61 60 64 57 84 95 91 91 89 88 88 90 86 81 79 86 87 88 91 91 94 89 93
22 34 32 40 43 38 33 23 18 34 40 45 43 74 69 75 81 92 95 83 78 98 98 85 64 83 78 77 70 73 71 87 91 89 87 87 86 92 83 70 78 87 88 88 85 81 73 88 76
23 26 28 31 28 26 26 20 17 32 46 47 49 61 78 71 88 90 90 76 78 98 98 100 78 78 76 97 71 54 57 71 94 87 87 86 77 88 74 69 73 84 88 84 76 48 63 68 64
28 32 34 31 29 22 19 17 16 22 40 46 49 52 64 80 93 90 96 97 100 94 83 92 97 96 90 86 77 78 77 73 94 88 85 84 77 80 69 70 74 84 86 76 51 52 60 59 51
36 31 36 35 29 23 19 16 30 28 40 49 61 70 72 96 78 98 98 99 99 98 86 81 92 84 69 61 71 75 96 84 96 88 90 83 80 76 66 63 62 71 60 44 47 61 61 60 54
33 36 34 30 29 26 18 17 30 38 53 57 55 55 84 96 94 100 97 99 100 100 100 99 96 73 64 79 70 69 78 87 92 92 91 80 62 66 51 44 39 46 45 41 42 57 61 59 58
33 33 31 31 30 25 17 20 42 50 56 60 72 71 65 92 98 100 100 100 99 100 100 100 100 96 86 89 99 89 97 94 82 82 92 60 56 50 42 34 26 27 36 40 33 33 49 59 59
22 32 37 28 23 20 15 23 43 53 58 82 84 86 95 99 100 100 100 100 100 100 99 99 100 100 94 91 66 86 99 90 86 73 84 68 64 52 40 32 25 20 26 37 31 30 35 50 59
26 34 29 23 19 19 18 29 43 57 72 73 87 91 98 100 100 99 100 100 100 100 100 99 99 97 94 97 82 83 83 90 88 62 74 63 49 46 41 32 25 20 28 32 31 30 30 42 56
24 28 23 20 19 20 19 36 58 66 76 66 76 82 99 96 96 96 100 99 99 100 100 100 100 100 100 99 91 93 96 97 87 68 64 53 49 50 44 35 25 20 29 30 30 30 29 31 44
21 20 18 17 16 17 16 41 57 66 41 70 68 86 87 87 92 95 100 100 99 100 100 100 100 100 100 100 97 95 98 93 86 74 60 46 47 49 45 39 26 26 26 29 28 29 30 28 33
21 19 16 16 18 22 43 48 49 62 67 73 82 91 87 90 91 96 99 100 100 100 100 100 100 100 99 99 99 100 93 88 78 72 59 45 44 47 46 43 33 32 36 36 33 33 32 31 30
19 18 23 24 23 20 36 55 57 48 71 69 94 89 85 84 90 99 100 100 100 100 100 100 99 98 95 96 91 92 94 92 81 74 54 39 42 45 48 44 39 42 44 46 47 42 33 29 28
22 26 27 24 21 20 38 42 61 46 67 75 98 96 92 97 92 90 96 100 98 100 100 99 99 94 92 88 86 93 88 86 75 52 58 45 42 48 48 46 45 48 51 51 52 45 34 32 31
25 26 32 22 19 21 19 30 26 61 72 82 96 96 97 97 92 94 99 100 99 99 100 100 100 95 92 96 94 97 89 80 66 63 72 52 46 47 49 47 47 49 52 54 53 50 41 36 33
34 32 33 28 22 22 20 27 32 67 66 79 92 92 94 98 95 100 98 98 99 99 100 100 100 98 99 96 92 97 86 79 76 64 60 52 45 49 47 48 51 51 53 56 54 51 44 40 38
37 39 36 34 26 26 27 30 42 70 79 82 91 90 94 98 97 97 98 98 100 100 100 99 100 96 98 93 96 92 85 78 73 64 57 49 48 49 49 51 52 55 59 57 57 54 49 46 41
31 34 37 32 26 27 30 33 46 62 79 78 90 91 92 94 95 96 96 97 100 100 100 100 100 100 98 94 93 87 81 81 65 61 65 66 58 53 51 60 60 58 58 58 58 57 54 50 44
35 38 38 32 27 28 30 28 40 62 63 63 73 88 90 98 91 98 100 93 100 100 99 100 100 99 94 85 87 82 78 78 72 74 71 66 68 62 61 68 63 60 61 60 60 59 54 52 53
37 38 36 35 30 28 28 31 46 48 57 57 60 71 81 95 94 97 98 100 94 100 99 99 100 96 95 82 79 75 76 74 74 74 71 70 70 73 72 71 67 65 64 63 61 59 55 56 60
38 29 31 34 36 43 28 47 35 49 58 58 56 66 78 92 93 91 95 100 100 100 98 93 96 90 93 80 74 73 72 71 71 66 64 65 67 67 68 68 64 66 67 67 65 63 59 60 62
35 28 34 35 40 37 36 45 40 41 48 49 47 51 64 82 91 90 89 90 96 98 98 92 89 90 90 84 76 67 67 64 63 61 60 60 58 60 62 62 65 70 72 71 71 67 64 67 65
28 33 33 39 42 54 40 45 47 43 39 34 35 43 55 75 86 82 79 83 88 90 90 87 83 83 80 78 70 67 63 59 58 58 57 59 60 57 58 66 64 67 71 71 73 75 76 76 75
32 35 54 54 61 62 42 56 48 33 34 31 34 45 50 64 80 84 80 80 83 86 83 80 76 73 70 69 68 71 57 56 49 52 60 59 57 58 58 61 67 67 71 74 80 86 88 89 87
39 40 63 55 63 55 55 64 45 33 31 32 31 38 44 61 73 77 77 72 72 72 72 71 69 67 65 67 70 68 59 54 60 64 66 62 62 57 58 60 59 67 68 74 86 95 96 94 89
34 45 32 69 80 83 62 50 39 31 28 32 35 47 58 60 70 72 71 68 65 61 62 64 63 62 62 66 69 71 64 64 69 71 67 61 59 62 66 62 58 64 68 80 94 94 93 97 90
28 36 49 65 79 77 62 64 53 38 31 25 35 49 54 55 63 67 67 65 64 59 57 59 62 63 64 66 69 74 76 74 76 71 68 64 63 68 74 73 74 81 80 93 98 92 100 97 94
36 40 49 55 64 67 76 62 49 43 34 25 32 46 52 54 58 58 61 60 61 61 62 62 62 65 66 67 70 72 72 72 72 71 73 73 73 78 78 84 87 87 83 93 100 100 100 95 98
28 35 51 68 72 72 75 66 35 37 34 24 24 36 48 48 50 52 54 54 57 58 60 64 66 67 73 74 68 70 62 62 62 62 65 66 80 86 79 97 89 99 93 92 98 98 100 100 100

GFSSGP_925_rhum_078.txt.gz
RH
20 21 30 25 24 36 34 27 22 20 26 34 55 54 60 76 56 50 89 92 89 100 98 91 90 88 81 68 74 100 97 78 76 66 62 83 87 92 91 90 89 85 85 86 87 88 89 91 96
24 34 31 34 32 34 28 26 24 20 30 41 49 73 71 72 83 79 88 92 96 98 96 90 92 91 83 77 68 71 99 84 86 79 82 87 89 90 88 87 87 85 85 82 83 90 88 93 95
29 35 31 38 44 34 30 24 21 20 32 41 40 71 70 68 83 91 95 87 86 92 99 100 81 67 70 66 68 89 89 95 91 88 87 89 88 86 88 86 86 85 87 89 96 98 96 88 86
24 27 31 32 28 27 26 21 21 20 28 46 49 45 70 75 90 88 84 78 91 93 100 95 82 60 57 51 62 82 91 78 85 89 87 88 88 89 90 86 83 84 87 88 94 98 93 68 55
27 32 35 33 29 24 22 19 18 20 36 46 47 42 65 77 85 79 84 86 95 99 100 99 86 72 58 59 72 72 70 86 81 86 81 87 89 88 90 84 86 87 85 87 96 90 68 42 37
36 32 37 34 29 24 22 20 18 24 37 52 54 64 66 96 84 94 92 93 100 100 99 99 91 84 87 88 82 86 85 77 84 86 79 89 84 87 88 86 88 84 66 75 70 64 49 42 36
32 34 35 31 29 28 22 16 22 34 48 54 57 62 77 94 99 99 98 99 100 99 99 99 98 92 84 76 73 82 79 76 78 78 84 93 82 85 88 92 85 58 53 56 59 58 50 44 40
35 36 36 34 32 28 18 20 41 45 47 62 69 74 64 89 97 99 96 99 99 100 99 100 100 99 90 89 74 77 83 79 81 78 85 90 88 87 85 80 58 45 53 60 60 58 56 49 49
25 35 41 30 28 22 16 19 43 54 62 71 78 92 90 91 100 100 99 99 100 100 100 100 99 99 83 74 70 80 85 83 97 86 82 83 78 77 68 62 45 41 47 58 61 59 59 55 53
28 38 33 26 23 20 21 20 21 50 59 60 81 92 94 99 100 99 99 99 100 99 100 100 100 99 87 84 83 96 99 98 94 90 80 79 62 46 37 41 43 37 33 35 48 60 61 59 55
27 30 25 22 21 21 21 22 42 57 53 60 60 94 94 99 99 96 100 99 99 99 100 99 100 99 92 83 100 100 96 99 98 83 76 65 48 39 28 33 40 35 33 34 41 57 58 55 50
26 24 22 19 18 18 20 30 52 62 40 64 64 91 89 94 94 94 99 100 99 100 100 100 100 100 98 99 100 100 99 100 92 82 75 65 44 35 29 28 35 33 33 32 35 45 48 46 43
23 21 20 19 20 23 28 36 46 64 54 74 88 95 84 89 90 91 96 99 100 100 99 100 100 99 99 100 100 98 100 96 94 86 78 48 40 35 30 25 32 33 32 30 29 31 34 38 50
22 20 22 25 25 24 27 39 56 43 77 87 94 94 86 87 89 95 100 98 100 100 100 100 100 98 99 99 100 100 100 84 87 92 61 44 41 37 28 24 30 36 33 30 29 28 28 37 34
24 30 28 26 22 24 30 37 64 46 80 81 97 82 78 86 84 91 94 96 98 100 100 100 99 98 97 97 99 100 97 89 83 78 52 48 45 44 41 29 32 38 38 36 35 33 30 30 32
27 27 30 21 22 20 24 35 28 40 76 83 98 87 84 82 82 85 88 94 99 100 99 100 100 100 100 100 99 100 100 94 92 75 52 44 44 43 44 40 38 47 48 50 43 34 31 30 29
35 40 32 28 23 23 24 32 26 67 71 81 99 98 90 88 84 88 91 94 98 99 100 100 100 98 97 96 94 95 94 98 91 77 62 53 47 49 45 44 45 51 52 52 47 42 37 35 33
41 41 39 37 25 27 30 33 29 55 71 74 95 97 98 94 86 90 96 99 99 100 100 100 99 98 94 97 96 93 93 96 82 65 55 62 52 49 48 47 47 50 54 57 53 49 43 40 38
32 35 38 36 29 27 32 36 30 43 79 84 91 96 96 96 94 90 96 99 97 100 100 100 100 100 98 97 97 96 89 90 81 60 44 60 51 48 49 50 51 50 54 56 56 54 49 47 44
36 37 39 34 28 30 34 33 29 51 61 77 82 94 95 96 98 93 96 100 99 99 100 100 100 100 99 96 94 98 96 86 74 61 63 61 53 49 49 52 50 54 59 61 60 58 57 54 50
42 42 39 37 34 32 32 38 32 36 58 57 64 78 90 94 89 94 93 87 96 98 100 100 99 98 99 92 93 94 94 93 82 74 70 69 59 55 53 49 57 61 61 62 61 60 61 58 56
46 35 34 36 39 48 31 52 36 31 45 54 58 71 88 94 91 88 89 88 88 93 94 99 99 98 98 91 89 92 86 84 83 72 65 66 64 67 65 58 62 70 67 67 64 62 62 59 58
39 32 36 36 43 42 40 50 43 38 38 39 44 60 76 89 94 96 93 94 94 93 100 99 98 97 99 91 83 85 79 74 74 74 68 69 71 70 70 71 74 75 73 70 67 66 66 63 60
31 35 37 41 49 66 47 51 50 40 37 33 35 42 62 86 92 91 92 97 99 100 100 99 98 96 97 88 80 80 75 73 71 72 70 70 69 68 70 72 73 72 74 75 71 72 72 69 66
36 41 60 61 73 68 44 53 38 32 32 33 33 34 47 71 92 92 93 95 99 100 99 100 96 96 93 91 83 75 75 69 66 65 65 61 61 63 64 65 67 68 71 71 72 73 78 78 76
44 45 68 61 67 56 54 59 46 36 35 34 33 32 50 76 85 87 85 85 92 95 92 93 93 90 88 86 85 79 74 69 66 63 62 59 55 54 55 58 59 59 60 62 67 74 81 85 87
39 50 38 66 79 77 63 49 37 30 33 30 34 37 49 75 84 85 81 78 82 88 88 85 86 83 82 81 82 80 76 75 69 65 62 60 56 62 65 64 63 63 66 73 80 86 85 86 93
35 38 57 66 83 82 63 61 48 35 29 31 30 43 51 64 80 81 82 77 74 76 78 80 80 77 74 71 73 74 74 73 73 67 61 57 62 65 66 66 63 59 66 71 85 98 100 100 100
41 36 46 52 63 59 66 59 48 38 40 43 33 35 47 63 77 79 77 74 72 68 68 70 71 70 68 65 66 67 67 67 62 59 51 45 51 58 64 63 62 64 77 83 88 98 100 100 100
29 39 44 61 65 72 68 46 32 38 40 36 32 28 44 56 66 72 74 73 72 68 64 65 69 68 68 66 64 59 55 51 49 57 58 68 73 66 70 73 77 79 78 88 96 90 96 97 100

GFSSGP_925_rhum_081.txt.gz
RH
24 22 28 22 17 21 22 19 20 18 19 23 48 45 48 59 44 38 94 94 95 98 98 91 75 78 72 78 92 92 95 88 74 71 64 65 77 84 88 87 86 88 88 85 84 85 92 93 96
23 33 28 23 18 18 17 20 20 16 18 33 64 62 59 48 70 69 86 92 93 99 100 96 88 80 75 78 89 93 93 90 91 69 80 73 83 88 91 84 85 86 84 86 86 88 92 98 95
35 34 23 24 27 18 18 19 16 16 17 23 35 57 56 54 72 79 95 90 83 94 100 94 84 80 70 61 60 70 86 91 94 89 90 90 88 87 87 83 85 82 83 79 83 90 94 96 91
26 22 22 22 21 21 20 16 17 17 28 39 38 38 58 64 78 94 95 85 79 94 99 95 84 82 68 62 58 63 71 66 91 89 90 90 90 88 85 83 81 80 81 92 87 95 93 70 78
26 23 25 27 24 21 20 17 17 17 22 40 42 32 45 68 87 88 89 84 97 99 100 97 80 72 70 62 57 64 54 82 96 86 90 89 88 86 82 80 83 88 90 88 91 92 51 49 60
26 24 24 20 22 20 18 17 17 25 28 45 44 44 46 94 87 93 93 98 98 97 98 98 80 64 67 70 64 66 71 66 69 81 87 89 89 83 80 85 85 79 84 92 93 56 38 36 46
26 26 23 24 23 22 19 16 20 22 32 35 48 40 48 77 94 94 97 98 99 99 100 100 88 67 60 61 64 65 64 72 77 76 86 89 88 82 82 84 82 82 84 89 66 38 33 43 50
23 23 30 27 24 20 17 16 31 33 23 56 49 41 45 74 96 91 91 97 99 99 95 100 99 89 76 72 71 69 66 70 88 98 87 93 88 87 88 84 74 69 70 65 48 44 40 45 55
22 27 27 26 26 18 16 18 26 47 45 56 63 68 75 94 97 99 99 99 99 100 100 100 100 100 97 93 91 85 79 79 94 96 95 89 95 97 88 78 54 56 59 59 51 45 50 47 57
22 27 25 22 20 19 19 18 16 32 45 46 67 79 84 91 97 95 96 97 99 100 100 100 100 99 96 92 83 77 79 83 88 99 98 99 96 94 84 56 52 58 61 58 56 52 53 66 78
25 23 23 19 19 17 18 18 22 35 28 32 46 64 79 84 91 87 89 94 100 100 100 100 100 100 94 90 82 73 92 95 100 99 92 91 86 83 62 55 49 73 72 78 75 68 76 76 70
26 23 21 18 18 20 19 19 29 41 22 48 42 64 77 84 81 82 85 93 99 100 100 99 99 100 98 95 100 99 100 100 100 100 84 85 79 76 64 44 40 52 82 90 89 80 70 52 41
26 22 19 19 18 18 20 21 23 37 33 61 72 76 78 79 78 82 89 91 100 99 100 100 99 99 99 100 100 100 100 100 100 100 94 71 63 67 54 40 35 34 38 53 63 60 60 56 44
23 21 19 20 22 22 23 26 48 21 42 69 85 83 74 73 73 79 90 94 100 99 100 100 100 100 98 99 100 100 100 97 97 97 72 52 36 36 40 38 35 35 38 41 48 55 56 62 48
24 27 25 22 19 19 22 30 41 29 63 72 80 77 73 69 74 70 80 94 98 99 100 99 100 99 99 100 100 99 91 96 97 74 57 40 28 24 30 31 34 33 32 31 42 42 47 48 54
27 28 29 20 22 20 22 19 22 33 56 68 79 74 69 70 69 74 80 91 96 99 99 99 99 98 99 100 100 100 97 86 75 70 56 39 30 22 22 25 30 35 32 31 32 35 40 39 51
35 26 30 22 20 21 25 23 22 47 55 60 85 75 71 73 72 74 84 89 97 100 100 100 99 98 97 98 100 98 98 100 78 64 58 48 35 27 21 29 38 37 36 38 36 31 31 43 46
34 34 33 27 22 25 25 23 20 31 51 52 63 81 84 80 76 75 86 90 97 99 100 100 99 99 97 97 100 100 98 90 85 70 56 61 48 36 29 35 46 48 49 49 43 36 35 42 38
30 30 28 26 26 26 24 24 20 22 54 57 64 72 82 88 72 78 88 94 98 99 100 100 100 98 98 97 100 100 100 94 89 78 66 59 55 49 42 52 43 53 53 53 55 45 44 43 38
31 32 29 28 26 28 24 25 22 24 30 46 54 65 71 74 87 81 90 98 98 98 100 100 100 99 96 97 99 100 100 98 87 75 75 67 53 50 50 46 46 50 56 58 56 53 62 62 44
40 40 36 33 30 26 28 28 26 24 39 48 55 52 62 68 82 88 88 99 97 99 99 100 100 100 98 98 95 97 97 98 90 75 64 61 65 54 46 49 48 49 52 53 58 60 58 62 57
39 33 36 37 37 34 30 35 29 23 24 37 45 59 61 67 71 75 83 94 96 91 100 100 100 100 99 97 99 100 93 96 92 77 53 51 49 64 49 50 50 51 53 54 58 64 62 66 71
34 31 35 35 37 37 26 34 33 32 28 23 24 46 54 60 68 73 81 81 87 87 97 100 100 100 100 99 96 94 94 88 80 82 72 78 65 60 50 52 52 54 56 62 64 66 67 64 72
32 32 35 41 40 48 33 37 34 28 27 24 24 28 48 58 66 69 75 83 85 86 90 96 98 99 98 95 94 92 88 86 82 78 78 81 82 71 68 66 62 58 61 69 71 69 71 69 69
34 40 47 57 60 42 38 43 32 29 26 24 23 22 38 56 65 71 80 88 90 88 92 98 98 98 98 94 91 88 88 86 82 79 77 80 88 91 80 71 74 74 73 74 76 77 76 76 78
40 39 43 43 50 38 44 45 31 28 27 29 29 27 31 53 64 67 71 78 89 95 96 97 98 96 98 98 93 88 84 84 82 82 79 75 73 69 65 66 69 67 67 67 72 79 86 92 87
44 47 33 51 72 64 46 42 31 27 28 26 25 26 31 47 61 64 67 72 78 88 98 98 92 89 93 95 95 90 86 81 82 74 70 70 67 63 59 57 59 61 63 69 75 80 80 82 86
33 35 50 46 51 52 47 48 31 28 25 28 32 30 31 42 60 64 65 70 73 76 83 92 90 86 87 90 92 90 88 83 81 77 69 65 62 60 58 56 57 59 65 66 75 81 80 96 95
33 39 45 39 47 43 47 42 38 30 28 35 36 31 31 45 58 64 63 66 70 73 76 83 84 82 83 83 86 86 86 86 82 76 69 64 62 61 58 56 58 60 68 67 69 80 89 91 98
28 32 34 51 59 56 47 38 29 33 32 37 31 29 26 36 53 60 64 66 68 70 71 72 73 74 80 82 83 83 81 79 75 66 58 65 72 71 66 65 62 73 73 71 77 91 100 100 100

GFSSGP_925_rhum_084.txt.gz
RH
30 24 23 17 14 10 10 11 11 12 13 12 18 24 26 26 22 25 71 81 89 95 83 88 72 58 58 79 89 89 81 93 90 88 82 73 74 81 86 88 86 88 85 91 93 92 83 85 85
26 28 22 14 12 9 10 11 12 11 11 15 22 35 36 24 34 44 62 82 85 97 92 91 84 69 64 61 74 86 91 94 92 88 79 71 80 84 89 88 84 82 86 86 92 92 92 96 78
28 28 15 12 10 9 10 11 12 12 11 13 19 30 29 28 42 50 75 86 82 88 93 92 86 72 72 82 81 77 78 91 93 88 80 78 85 89 87 83 82 82 83 89 92 93 96 92 80
21 15 13 12 9 10 11 11 12 13 15 14 15 24 32 43 48 67 84 85 77 79 95 99 91 86 85 75 77 78 93 88 86 78 84 86 89 90 85 82 83 82 83 85 89 96 95 89 81
17 13 12 11 9 9 11 11 12 13 14 24 22 18 26 45 63 74 79 88 80 90 96 98 89 87 86 74 69 66 72 74 59 58 87 85 89 85 82 82 79 80 82 89 94 96 91 80 78
14 14 12 10 9 9 11 11 13 14 16 25 28 24 23 57 58 72 88 95 97 92 95 99 89 89 88 81 79 75 78 64 70 55 92 85 92 87 83 80 79 88 86 86 92 88 58 66 70
15 14 11 10 9 9 11 11 13 14 16 15 25 21 26 50 64 78 89 96 97 98 97 99 86 90 94 87 74 75 71 75 93 90 92 89 90 85 82 88 90 93 89 57 37 32 42 52 65
14 13 12 10 9 10 11 11 12 15 15 28 25 16 19 48 73 77 81 90 97 95 96 97 90 94 97 92 82 80 76 79 79 86 89 91 84 87 87 90 84 81 84 48 33 29 39 47 52
15 15 13 11 11 9 11 13 12 20 21 22 27 26 40 63 71 78 91 97 99 98 95 96 98 89 86 99 92 86 80 75 72 76 78 88 83 90 89 86 76 82 66 42 30 35 42 54 61
16 14 12 9 9 12 12 13 11 13 12 16 24 35 53 63 65 61 64 64 83 91 98 100 100 97 96 100 95 91 91 88 86 88 88 93 89 94 84 93 80 69 58 44 39 44 47 63 66
14 15 11 12 12 11 11 12 11 14 14 13 15 17 42 52 56 60 59 59 68 92 99 99 100 100 100 99 96 97 94 89 89 93 99 97 96 90 91 90 94 74 66 68 65 70 61 55 53
16 13 11 10 9 12 12 11 12 13 15 12 20 23 34 48 53 56 57 61 62 91 100 99 99 100 99 98 95 94 98 86 98 100 100 99 97 90 84 79 84 82 69 71 69 62 58 58 54
18 11 12 12 12 14 13 14 13 12 11 12 26 36 40 47 48 57 56 60 66 83 99 100 99 99 100 100 99 99 96 98 100 86 99 89 85 85 83 86 85 76 72 72 65 63 64 60 56
13 15 14 13 13 14 16 13 13 14 12 18 30 32 36 46 47 55 60 61 70 78 99 98 99 99 100 99 100 97 99 100 98 100 95 87 86 74 68 76 84 81 80 71 66 64 60 51 50
17 19 15 15 14 15 13 14 13 13 20 24 29 35 38 44 48 51 54 63 76 82 98 99 99 99 98 100 99 99 100 100 100 94 93 91 82 65 62 63 68 70 77 68 63 64 55 50 46
20 19 21 14 13 13 14 14 8 10 21 22 27 36 41 45 45 50 54 63 73 86 99 100 99 99 100 100 100 96 100 100 99 91 78 79 71 56 53 44 37 57 58 63 68 58 52 48 44
18 23 18 18 13 12 16 12 10 19 20 22 26 35 40 41 45 50 62 68 71 84 98 100 99 99 99 100 99 99 95 88 91 87 80 68 61 48 38 38 38 33 37 43 49 48 46 47 43
21 22 21 20 14 15 14 14 11 12 18 20 24 35 37 40 45 52 67 70 74 84 100 99 100 99 97 100 100 99 98 95 76 77 70 47 32 35 42 38 34 46 42 49 46 46 46 42 38
18 22 21 16 16 19 17 15 11 10 15 21 26 31 37 41 43 52 69 81 81 85 100 100 99 100 99 100 100 100 98 99 94 74 55 41 44 57 55 55 57 48 50 52 59 52 50 46 46
26 24 22 16 16 21 18 15 11 10 14 16 18 27 32 40 47 52 70 80 84 83 96 100 98 99 97 100 100 99 100 90 78 67 60 64 72 57 48 54 50 41 65 66 65 62 56 52 51
28 27 23 21 18 19 21 21 16 9 14 18 22 22 26 34 45 54 64 75 81 79 89 100 100 98 99 100 99 100 99 100 92 79 79 72 67 65 53 50 64 64 61 65 69 68 59 55 57
30 20 22 24 25 26 20 23 13 15 16 16 19 27 26 31 36 50 58 71 77 79 84 98 100 100 99 98 100 100 92 90 93 87 79 78 78 71 59 61 65 68 63 63 70 68 63 62 58
26 20 19 23 27 27 25 26 15 12 16 15 13 19 25 29 35 45 54 66 71 75 78 91 98 100 99 100 98 98 94 83 89 85 78 70 76 80 68 67 69 67 64 68 67 69 74 67 66
24 27 28 29 29 38 29 23 18 14 18 16 14 14 20 26 33 39 50 65 67 75 80 87 96 99 100 99 100 98 96 92 90 84 70 59 61 64 73 66 69 70 67 70 75 78 78 77 72
27 28 36 43 43 38 20 23 20 16 16 16 14 14 18 24 31 39 49 57 63 74 81 85 90 93 100 100 98 94 92 89 89 78 69 60 53 52 64 74 69 71 74 75 80 84 83 82 80
30 29 32 40 36 32 23 30 21 16 14 14 15 16 19 25 31 38 43 50 62 71 74 83 87 86 94 95 92 90 85 89 86 78 71 62 59 59 68 78 80 83 81 83 85 84 83 83 85
24 33 23 33 30 46 28 24 22 18 18 17 16 15 18 20 29 34 40 50 60 67 70 82 85 88 83 88 86 83 85 79 78 73 73 65 63 62 73 77 82 81 81 82 81 82 82 84 85
18 18 36 34 45 43 27 28 25 21 19 16 18 19 20 18 25 32 37 47 56 64 69 81 80 78 72 84 83 80 79 78 73 70 70 67 66 70 68 73 76 76 76 75 77 76 80 84 83
28 32 29 27 30 36 34 24 19 20 18 18 19 20 20 23 27 33 35 41 50 59 67 74 72 65 65 70 75 76 78 76 73 74 74 72 72 72 72 73 71 71 67 68 72 78 81 83 84
23 26 29 39 30 34 35 30 21 22 21 22 20 21 20 26 30 33 36 39 46 53 58 65 63 59 61 67 69 73 75 76 78 77 76 76 74 73 70 68 66 67 65 66 70 74 84 92 97

GFSSGP_925_rhum_090.txt.gz
RH
24 15 20 14 17 14 13 9 5 7 7 8 9 12 12 15 14 40 46 60 69 64 76 77 66 63 70 89 89 92 93 93 91 77 72 79 82 77 70 76 81 86 90 95 96 96 96 93 74
24 17 13 13 19 15 10 7 8 7 8 8 9 12 14 16 17 36 49 54 63 74 82 80 78 64 65 83 91 90 89 89 87 84 75 76 82 76 74 79 85 86 89 95 94 96 98 71 68
26 18 14 18 16 15 11 7 8 7 8 9 9 10 13 18 23 37 54 57 56 68 76 84 84 73 61 67 82 94 91 88 88 91 86 78 79 75 80 87 87 86 88 91 93 98 91 72 68
20 13 14 17 14 10 7 6 7 8 8 9 9 9 12 23 19 41 53 53 55 58 74 81 87 88 72 68 74 82 85 83 85 97 88 86 77 76 86 86 85 86 85 89 94 98 76 73 68
16 13 16 15 13 9 7 6 7 8 8 10 11 11 14 23 36 46 54 59 59 60 74 87 87 88 86 78 71 78 78 83 79 66 73 96 90 78 87 85 82 85 87 88 99 81 74 70 73
15 12 16 14 11 8 6 6 7 9 9 9 14 15 15 28 36 46 62 62 68 68 76 88 95 96 91 88 84 80 79 74 67 63 78 83 93 76 89 85 82 88 89 90 95 78 74 69 70
16 14 14 13 12 11 7 5 7 9 10 10 10 15 19 30 34 55 60 65 77 78 77 89 96 94 98 93 90 80 74 71 74 62 65 67 98 91 85 89 82 91 86 86 78 76 74 70 65
13 13 15 12 12 12 7 6 6 9 10 9 11 16 19 33 47 53 59 62 71 77 80 84 88 98 92 94 91 86 78 76 75 70 65 71 94 89 91 87 87 88 84 80 73 74 70 71 62
11 15 15 13 12 10 6 7 7 7 9 9 8 12 21 39 46 46 54 57 61 78 78 84 85 90 94 93 87 84 85 87 82 88 87 84 94 94 96 86 87 84 72 78 67 70 62 62 58
14 16 15 11 9 10 8 7 7 8 10 10 10 11 18 36 37 39 43 48 59 69 71 77 90 89 89 95 91 87 85 90 87 84 94 92 95 100 99 86 82 74 72 76 66 61 59 61 47
13 16 13 11 9 9 8 8 6 8 10 9 10 9 11 29 33 34 33 33 45 58 64 79 96 98 99 94 94 85 86 79 84 86 86 87 90 90 92 100 94 71 63 71 52 58 60 46 51
15 12 11 11 10 9 9 8 8 7 8 7 8 11 11 12 21 28 29 32 35 61 69 78 96 100 97 97 99 94 85 87 91 95 89 89 89 99 100 100 95 76 79 59 43 52 55 53 56
15 12 11 10 10 9 8 10 9 9 8 9 8 8 10 13 15 17 26 30 35 64 76 81 95 99 99 98 93 94 93 94 89 95 92 88 94 99 96 100 86 76 62 44 46 60 51 50 51
14 12 11 10 10 10 10 10 11 10 10 9 8 8 8 10 14 19 27 34 38 60 80 86 94 92 98 96 94 94 91 93 100 100 89 90 93 92 94 96 74 71 70 38 57 53 53 51 53
15 18 15 13 12 12 12 14 13 10 10 10 10 8 10 10 15 24 27 38 41 45 78 84 91 94 94 93 93 92 99 95 98 100 100 99 94 94 94 86 70 68 66 55 61 55 53 52 54
19 19 22 15 14 13 13 19 13 11 11 10 10 8 11 12 18 23 28 38 41 48 83 85 89 94 95 100 95 96 99 100 98 95 100 99 100 100 92 78 72 64 63 64 57 54 50 48 52
24 28 24 20 15 14 14 16 11 9 9 8 9 9 12 16 21 25 30 37 41 48 82 84 91 95 93 97 99 99 99 99 100 98 100 100 100 96 94 78 71 69 66 65 56 49 46 46 48
28 26 22 22 17 14 14 15 12 11 10 12 12 12 13 18 23 27 31 38 42 51 86 84 93 97 96 100 100 100 100 100 100 100 100 100 99 94 94 81 80 77 70 65 58 50 47 44 44
20 20 22 20 16 14 15 16 13 11 12 11 14 13 13 16 21 27 33 42 45 66 90 84 97 98 99 100 100 100 100 100 100 100 100 98 88 78 79 91 88 75 68 64 56 52 51 45 45
17 20 22 21 18 16 16 16 14 13 12 12 11 10 13 14 19 29 40 46 49 71 91 92 98 97 100 100 100 98 98 98 93 91 94 85 74 75 81 84 80 72 64 59 51 52 48 46 42
20 24 23 30 25 18 19 19 17 14 13 12 12 10 9 14 20 31 44 51 55 74 90 94 91 95 99 100 100 97 94 94 95 100 98 89 71 68 73 75 66 59 57 50 52 51 48 45 41
21 19 25 33 39 47 20 28 20 15 14 13 12 13 11 11 18 29 41 54 60 66 88 86 94 95 99 99 99 91 88 86 87 84 82 76 78 79 77 65 66 52 59 53 48 53 49 52 51
20 20 28 41 44 34 26 27 20 16 15 14 12 12 12 15 16 30 38 51 59 64 78 88 92 95 100 98 96 87 82 84 91 88 72 65 64 71 64 67 60 61 53 60 59 64 61 55 60
19 22 28 32 37 56 34 26 23 20 17 14 10 11 14 15 17 26 35 46 54 62 70 87 91 92 100 100 94 86 85 90 92 83 76 73 68 64 59 63 63 59 57 63 65 67 68 68 64
22 30 43 60 65 60 26 25 24 18 15 13 12 12 12 15 18 24 40 44 48 62 70 80 89 91 98 100 100 91 84 84 87 80 70 68 71 70 53 57 58 69 65 66 68 65 76 69 67
25 33 39 54 71 73 41 38 21 14 13 11 11 12 12 15 21 24 36 42 47 60 69 74 82 86 95 99 99 95 87 88 88 75 70 67 65 65 54 44 53 58 69 64 66 70 72 73 69
26 35 25 37 39 54 43 37 24 16 12 13 12 12 15 16 18 20 32 41 46 56 63 75 78 89 94 97 96 99 97 89 81 78 73 78 77 77 63 53 55 70 68 70 70 70 72 74 73
19 23 38 36 49 42 29 28 29 22 16 14 15 14 15 14 15 21 26 43 44 53 62 76 77 83 90 96 94 94 98 94 84 81 73 76 73 69 68 62 60 59 66 70 70 72 74 77 80
15 18 21 20 23 34 43 36 28 35 27 17 17 19 20 20 18 21 25 40 43 50 62 72 78 77 84 88 92 92 92 94 86 83 88 76 71 68 65 61 64 66 67 68 72 76 79 80 80
16 19 18 31 31 31 35 35 17 17 19 18 17 19 20 18 21 19 24 39 42 50 57 65 70 72 77 84 89 89 90 90 90 84 85 85 82 68 67 61 58 59 68 65 67 77 80 77 74

GFSSGP_925_rhum_093.txt.gz
RH
15 18 17 23 32 30 28 19 12 9 13 13 13 16 17 16 28 51 60 50 73 72 74 70 62 64 73 83 84 91 97 97 71 62 56 53 62 65 61 56 58 65 87 94 97 99 100 92 76
20 26 25 24 31 36 29 15 13 13 12 11 13 13 15 18 43 58 60 66 70 79 83 77 69 62 66 75 82 86 88 88 90 74 72 66 62 62 61 65 70 82 88 95 95 97 98 79 77
20 27 25 31 33 33 26 11 11 12 11 10 10 12 16 35 44 58 55 60 67 71 84 85 80 66 62 70 82 87 86 87 90 89 98 98 86 69 70 77 80 84 90 95 93 98 92 78 78
25 28 22 28 31 22 18 12 10 10 10 10 10 11 18 26 36 52 53 53 64 70 76 86 83 78 63 64 76 90 92 90 96 93 75 73 77 93 81 84 84 83 87 81 83 97 68 68 72
26 28 30 31 25 16 12 9 10 10 9 14 12 14 31 49 44 51 54 54 59 69 79 85 90 89 75 67 76 84 86 93 97 81 79 64 67 84 87 86 85 86 85 83 90 72 64 65 69
27 25 29 30 22 15 12 10 10 12 10 11 16 16 28 47 50 58 57 59 63 68 74 79 90 94 90 80 78 90 87 91 93 95 85 76 73 79 95 94 86 88 81 83 88 74 66 76 72
31 28 29 24 19 15 12 9 11 13 12 11 12 21 33 45 52 55 58 60 61 73 83 83 85 95 97 90 88 80 88 83 89 76 72 61 72 80 97 96 88 88 85 80 75 74 73 77 72
24 24 26 22 20 18 11 8 10 11 11 9 12 18 43 59 51 54 59 69 69 70 79 87 86 91 86 94 94 89 83 79 69 62 70 57 71 72 99 88 88 90 85 80 74 70 76 72 62
18 29 29 23 18 14 12 8 9 9 10 9 10 12 33 54 54 59 62 68 74 72 80 81 80 85 81 83 86 89 85 79 73 70 69 71 83 94 95 90 88 89 88 74 73 70 69 62 54
25 30 25 17 15 15 13 12 8 11 12 12 13 14 44 52 53 63 67 65 66 74 75 80 82 84 79 79 89 88 87 92 88 84 87 78 88 98 100 99 90 89 86 72 67 67 65 59 50
22 26 19 16 14 14 15 13 10 10 12 13 16 14 50 50 53 54 58 57 58 65 76 78 82 83 97 95 89 86 87 95 94 90 89 87 93 95 92 99 94 94 82 75 63 66 63 55 49
26 19 16 14 13 14 14 12 12 11 11 10 11 11 43 45 46 46 46 43 53 68 77 80 76 88 87 98 94 87 90 87 89 93 93 88 92 100 100 100 99 84 78 64 62 59 58 47 49
24 20 17 14 14 14 13 14 12 12 12 13 13 10 12 31 42 39 36 35 60 70 78 82 80 98 98 100 95 93 90 83 80 86 88 90 87 99 95 99 92 71 69 54 58 54 45 49 53
21 21 20 16 16 14 14 14 13 12 14 12 12 12 11 12 16 21 33 48 68 72 75 81 83 97 100 99 98 94 91 93 90 94 91 89 87 100 100 97 80 64 53 44 53 45 45 53 55
20 26 21 20 19 18 15 18 18 14 14 15 14 13 12 12 13 24 32 44 59 71 76 80 82 84 92 98 95 95 90 97 100 95 94 90 89 100 95 88 68 50 34 56 62 43 51 50 55
30 29 33 21 19 17 16 22 18 14 14 14 13 12 12 14 14 24 34 44 58 77 79 84 83 83 95 92 91 94 98 96 99 100 97 95 97 100 96 84 64 37 40 61 58 50 50 52 54
36 44 37 28 21 20 19 21 17 14 14 14 13 14 13 14 26 34 40 47 53 72 82 89 84 87 91 91 93 92 99 99 100 100 99 98 99 100 93 86 70 36 56 65 56 56 53 54 54
45 38 36 33 24 21 22 21 18 14 14 14 14 14 15 21 31 36 43 46 55 74 81 83 85 89 91 92 95 96 99 100 99 96 99 100 99 100 100 91 64 52 64 63 55 52 49 53 53
28 30 31 25 18 19 23 25 22 15 15 16 20 18 18 18 32 36 46 52 79 82 82 84 87 91 94 100 100 100 100 100 100 99 100 100 100 100 99 96 76 66 68 57 52 48 48 50 50
20 24 25 20 18 19 23 31 30 24 16 16 17 20 20 20 35 46 51 75 86 92 85 85 87 94 100 98 99 98 100 100 99 100 100 100 100 100 99 89 81 71 61 54 48 49 48 48 46
14 19 25 27 25 29 41 41 36 23 17 15 15 16 17 18 38 52 53 74 95 96 88 85 83 99 100 99 100 100 100 100 100 100 100 100 100 100 93 85 78 70 65 55 49 48 47 49 48
17 12 14 22 43 58 41 75 46 35 23 16 14 14 15 16 39 52 56 76 92 98 83 80 80 98 100 100 100 98 98 98 100 91 93 96 100 97 90 83 84 77 65 56 51 53 50 45 47
21 17 18 37 47 55 53 73 56 30 24 18 16 16 15 17 42 55 58 65 90 92 89 84 83 100 100 98 95 95 95 93 99 100 99 89 86 85 84 79 79 70 57 48 52 55 51 47 43
21 24 30 40 50 80 62 62 59 35 26 18 15 14 19 19 42 55 57 64 88 92 91 88 93 100 100 98 95 89 87 91 92 94 93 93 88 86 84 78 69 64 59 60 54 46 51 51 45
26 32 55 70 70 71 37 53 54 32 21 16 16 15 17 18 41 56 66 68 77 90 93 93 92 100 100 98 93 87 88 89 89 82 81 78 79 77 76 71 67 63 58 64 55 48 55 58 63
32 33 63 68 82 84 48 70 54 35 34 16 15 16 19 26 39 54 62 66 70 84 92 90 89 98 100 99 93 84 88 90 86 78 80 73 72 73 70 72 68 65 56 57 55 52 60 67 68
35 39 31 47 44 68 52 39 34 33 25 18 15 15 20 29 38 51 57 62 68 77 87 88 88 92 100 99 93 86 86 89 85 79 73 74 72 70 69 61 68 66 62 58 59 65 71 67 56
25 26 43 48 60 57 39 31 51 36 34 31 19 21 22 25 34 48 52 57 68 74 81 82 83 87 93 99 98 91 87 85 86 77 73 72 70 70 71 60 55 58 66 66 68 77 76 69 68
23 29 32 30 47 59 52 43 33 35 34 39 37 27 26 24 25 39 49 52 63 72 79 79 79 83 89 95 98 96 93 88 87 83 74 75 73 70 71 62 59 55 51 55 66 69 69 72 71
18 19 20 33 36 36 40 35 29 26 39 41 52 51 23 20 24 33 46 52 63 70 80 82 78 84 90 92 92 97 99 96 90 84 82 75 78 74 72 63 64 60 54 58 69 70 70 72 73

GFSSGP_925_rhum_099.txt.gz
RH
35 30 26 24 33 39 38 29 20 18 14 14 15 16 19 24 22 28 64 64 69 62 69 75 71 68 61 57 54 56 60 60 58 61 67 71 70 72 76 74 70 86 89 94 96 85 87 92 91
25 28 24 33 37 38 31 26 21 18 14 15 17 19 23 40 58 70 77 69 63 58 65 71 65 63 62 57 56 56 60 62 65 68 70 74 76 72 73 75 81 89 94 91 97 93 87 95 92
28 34 30 34 46 40 28 22 15 15 13 14 12 13 36 40 57 70 55 64 66 61 62 67 67 62 66 61 57 58 64 65 65 69 74 75 77 84 77 80 84 85 89 88 96 88 88 94 91
27 36 35 36 41 37 25 18 20 16 12 12 11 18 34 45 63 49 56 68 69 65 68 68 68 68 74 80 80 77 80 78 81 83 78 85 84 80 81 79 81 82 82 85 93 81 93 94 91
28 36 37 38 37 31 25 20 16 16 13 13 12 17 38 54 54 50 54 69 62 72 77 76 75 77 73 83 88 89 95 90 85 77 78 84 87 83 75 68 73 81 81 81 82 83 90 90 90
33 37 43 43 32 26 20 18 16 17 16 15 16 43 49 64 64 64 59 62 66 72 83 82 80 78 84 87 92 93 96 99 92 81 77 76 81 77 77 72 66 81 80 75 84 84 87 87 85
37 38 41 35 31 26 19 15 15 17 15 17 22 42 49 69 69 70 67 68 75 81 86 86 84 82 81 91 90 94 97 99 97 86 72 72 74 73 73 70 71 82 77 80 82 83 84 86 81
38 39 36 35 31 27 17 15 12 14 14 13 22 48 58 67 69 68 75 82 86 87 86 88 92 92 88 88 91 95 98 98 100 90 76 73 73 73 74 73 78 84 77 83 80 86 84 83 73
30 44 45 38 28 24 18 19 15 13 13 12 17 46 38 55 70 75 84 92 94 93 88 83 83 81 88 94 92 90 99 96 96 94 84 77 82 77 77 85 74 74 65 83 76 87 83 80 74
42 54 43 30 24 22 21 20 20 16 15 13 13 42 67 70 80 84 87 88 91 95 92 80 79 78 79 84 96 88 82 99 99 99 94 94 77 76 86 92 80 70 85 84 73 82 86 79 68
40 41 34 28 24 24 24 24 19 16 17 15 14 25 78 79 79 80 79 74 74 75 82 77 78 79 81 80 82 79 81 97 100 100 91 76 78 80 88 96 92 89 87 80 73 84 82 66 67
40 32 30 28 25 26 24 20 20 19 16 15 14 23 75 79 79 76 76 73 71 70 71 74 77 83 82 77 82 82 77 88 93 87 77 75 79 78 96 92 93 89 93 83 87 86 70 60 74
40 34 31 29 28 26 23 24 22 20 17 18 15 25 70 71 71 67 63 62 71 75 75 80 77 80 82 83 84 85 80 84 88 88 78 77 81 92 97 99 100 99 97 79 83 80 65 69 76
27 28 28 28 27 26 26 25 22 20 19 18 18 20 60 66 65 62 64 66 68 69 76 82 80 79 85 88 88 85 80 92 98 94 84 82 87 96 100 100 100 99 93 91 84 78 64 67 71
26 32 30 29 26 26 22 28 27 21 19 19 18 18 25 58 58 60 58 60 57 63 75 82 82 85 86 89 89 86 81 92 100 99 88 91 90 97 93 99 96 100 97 82 86 82 62 69 72
32 34 43 31 29 26 26 31 24 21 20 20 20 20 19 20 43 54 53 55 60 70 80 84 85 80 86 86 90 93 88 89 95 91 88 94 96 97 99 100 99 98 97 80 82 80 65 68 74
42 49 45 37 27 26 28 32 23 22 21 24 25 26 25 22 19 19 43 50 56 63 85 88 86 78 75 89 94 98 92 91 86 90 93 100 100 100 100 98 100 92 96 79 78 76 64 71 77
45 51 47 44 31 29 34 33 28 24 25 27 31 30 29 24 19 19 26 47 70 77 84 86 86 81 82 96 100 98 96 98 99 100 100 99 100 99 100 98 88 100 80 74 74 69 62 66 74
38 43 46 34 28 29 32 30 26 22 26 33 31 32 29 25 24 37 54 77 89 93 94 92 87 88 92 100 100 100 99 100 100 99 100 100 100 100 100 96 97 80 79 70 66 63 61 71 77
34 39 41 33 29 29 29 27 20 26 30 30 30 33 33 29 43 70 89 95 96 99 99 95 91 99 100 100 100 100 98 99 99 99 100 100 100 100 100 92 94 71 70 71 57 62 71 73 75
28 31 28 30 22 22 32 27 31 28 27 28 27 30 27 29 40 75 93 95 98 99 100 99 100 100 100 96 94 90 90 90 97 100 100 100 100 100 100 87 92 70 68 76 58 61 63 70 69
27 21 20 22 22 29 32 30 20 26 27 31 31 28 24 29 38 63 85 94 95 98 100 100 100 100 100 94 94 95 99 99 99 99 100 97 99 100 99 99 94 60 78 71 61 60 61 64 65
26 24 25 24 24 26 34 67 37 37 37 28 25 29 29 28 31 62 78 85 93 98 100 100 100 99 99 97 94 95 95 98 98 99 100 99 92 100 100 98 94 72 77 73 66 62 59 61 59
26 28 32 35 40 68 42 64 36 33 38 36 31 30 36 29 29 52 63 81 92 98 100 100 99 100 94 99 98 91 89 99 100 100 100 100 99 100 99 100 96 90 87 79 68 58 56 58 57
29 35 59 70 84 65 54 64 39 35 33 38 45 51 43 36 32 55 76 92 90 96 98 98 99 99 98 100 97 94 99 98 99 99 100 100 100 100 100 100 100 100 93 85 73 67 62 56 47
37 41 62 61 68 49 54 70 48 41 45 49 51 49 43 41 38 48 70 87 86 92 97 98 98 99 99 100 98 98 95 95 97 99 100 100 100 100 99 100 100 100 95 87 82 72 68 55 57
32 44 35 46 56 70 68 55 37 43 66 64 62 57 54 47 43 50 70 86 87 91 97 98 97 96 97 98 100 98 94 95 95 98 95 99 100 100 100 98 99 99 100 89 77 78 75 62 58
26 28 46 56 65 63 53 49 50 70 78 69 68 70 58 47 46 53 73 86 89 93 96 97 96 93 95 98 100 96 95 93 94 96 94 92 95 99 100 100 91 85 84 83 83 86 73 67 59
34 40 42 43 62 55 60 56 73 70 63 75 79 75 61 52 45 67 72 82 86 91 96 98 97 93 93 99 100 96 96 93 91 92 89 89 87 89 96 98 98 100 100 97 90 85 78 58 66
29 36 49 62 57 64 65 56 46 44 62 68 71 79 60 53 44 48 68 82 85 92 95 97 97 94 90 93 100 94 97 93 92 89 87 82 82 82 83 91 94 93 92 91 94 88 79 76 63